Regional Weather Roundup
Issued by NWS Wakefield, VA

Home | Current Version | Previous Version | Text Only | Print | Product List | Glossary Off
Versions: 1 2 3 4 5 6 7 8 9 10 11 12 13 14 15 16 17 18 19 20 21 22 23 24 25 26 27 28 29 30 31 32 33 34 35 36 37 38 39 40 41 42 43 44 45 46 47 48 49 50

000
ASUS41 KAKQ 091910
RWRAKQ

REGIONAL WEATHER ROUNDUP
NATIONAL WEATHER SERVICE WAKEFIELD VA
300 PM EDT WED JUL 09 2014

Note: "fair" indicates few or no clouds below 12,000 feet with no
significant weather and/or obstructions to visibility. * = Denotes
station may not report precipitation (e.g., rain,snow,etc.),
thunder or fog.

VAZ042-051-052>054-056-092000-
NORTHERN VIRGINIA

CITY           SKY/WX    TMP DP  RH WIND       PRES   REMARKS
WASH NATIONAL  PTSUNNY   87  68  52 S10       29.90F
DULLES         PTSUNNY   86  68  54 S14       29.89F
FORT BELVOIR   DRIZZLE   84  68  58 VRB7      29.90F
QUANTICO       PTSUNNY   85  72  65 S9        29.91F
FREDERICKSBRG* MOSUNNY   90  70  52 SW9       29.90S HX  95
STAFFORD*      PTSUNNY   88  70  55 CALM      29.94F
WARRENTON      PTSUNNY   86  77  72 S6        29.89F HX  97
CULPEPER*      PTSUNNY  N/A N/A N/A S8        29.90F
MANASSAS*      NOT AVBL
LEESBURG*        N/A     82  77  83 S5        29.90F
WINCHESTER     MOSUNNY   88  61  40 SW10      29.89F
$$

VAZ048-049-060>072-079>083-092000-
CENTRAL AND SOUTH CENTRAL VIRGINIA...AND NORTH CENTRAL NORTH CAROLINA

CITY           SKY/WX    TMP DP  RH WIND       PRES   REMARKS
RICHMOND       CLOUDY    90  67  46 SW14G22   29.92F
CHESTERFIELD*  MOCLDY    88  64  45 SW8       29.94F
HANOVER        PTSUNNY   90  67  46 S12       29.93F
TAPPAHANNOCK*  MOSUNNY   89  65  45 S5        29.92F
CHARLOTTSVILLE PTSUNNY   84  70  62 SW12      29.91F
ORANGE*        PTSUNNY   86  70  58 S8        29.92F
LOUISA*        PTSUNNY   86  72  62 S6        29.91F
FARMVILLE*     HVY RAIN  82  70  65 SW13      29.92S
SOUTH HILL*    CLOUDY    86  70  58 SW6       30.00F
ROANOKE RAPIDS CLOUDY    91  70  49 S14       29.93F HX  97
RALEIGH        PTSUNNY   94  65  38 SW12G20   29.94F HX  96
$$

VAZ088>098-092000-
SOUTHEAST VIRGINIA

CITY           SKY/WX    TMP DP  RH WIND       PRES   REMARKS
NORFOLK        PTSUNNY   93  68  43 SW15G26   29.93F HX  97
VIRGINIA BEACH PTSUNNY   92  70  48 SW13      29.92F HX  97
NORFOLK NAVAL  PTSUNNY   93  70  46 S10       29.93F HX  99
WEST POINT*    CLOUDY    89  69  50 S5        29.93F
NEWPORT NEWS   PTSUNNY   95  71  45 W10       29.93F HX 102
LANGLEY AFB    PTSUNNY   90  71  52 S9        29.91F HX  96
FORT EUSTIS    PTSUNNY   88  74  63 VRB2      29.91F HX  95
WILLIAMSBURG*  PTSUNNY   91  73  55 W3        29.94F HX 100
FRANKLIN*      MOSUNNY   91  70  49 S10       29.92F HX  97
WAKEFIELD      MOSUNNY   90  70  51 VRB6      29.92F HX  95
$$

VAZ020-022-025-037-045-092000-
WESTERN AND SOUTHWEST VIRGINIA

CITY           SKY/WX    TMP DP  RH WIND       PRES   REMARKS
STAUNTON*      PTSUNNY   84  64  51 S12       29.95S
HOT SPRINGS VA CLOUDY    69  56  63 W9        30.11S
LYNCHBURG      RAIN      70  70 100 S10       29.99F FOG
DANVILLE       NOT AVBL
MARTINSVILLE   TSTM      75  72  88 S3        30.01S
ROANOKE        CLOUDY    79  69  71 W7        30.00S
BLACKSBURG     PTSUNNY   79  70  73 CALM      30.05F
DUBLIN*        CLOUDY    80  67  63 SW13      30.03F
MARION*        LGT RAIN  72  71  96 SW7       30.09S
HILLSVILLE*    CLOUDY    74  65  74 SW14G21   30.07F
RICHLANDS*     LGT RAIN  70  67  90 S3        30.08S
WISE*          CLOUDY    73  64  73 CALM      30.08F
ABINGDON*      HVY RAIN  72  70  92 W9        30.07R
$$

MDZ021>025-VAZ099-100-092000-
SOUTHERN MARYLAND AND THE DELMARVA PENINSULA

CITY           SKY/WX    TMP DP  RH WIND       PRES   REMARKS
PATUXENT RIVER PTSUNNY   86  69  56 VRB6      29.91F
BAY BRIDGE APT   N/A     84  68  58 SE10      29.90F
LEONARDTOWN    NOT AVBL
DOVER          MOSUNNY   87  72  61 S9        29.89F
GEORGETOWN     PTSUNNY   87  72  60 S12       29.92F
EASTON         PTSUNNY   86  72  62 SW7         N/A
CAMBRIDGE      MOSUNNY   86  64  48 SW7       29.91S
SALISBURY      CLOUDY    86  71  60 S8        29.92F
OCEAN CITY     CLOUDY    83  73  72 VRB5      29.93S
WALLOPS ISLAND CLOUDY    87  73  62 SW7       29.94S
ACCOMACK*      PTSUNNY   84  70  61 SW7       29.94S
$$

NCZ012>017-030>032-092000-
EASTERN NORTH CAROLINA

CITY           SKY/WX    TMP DP  RH WIND       PRES   REMARKS
ELIZABETH CITY PTSUNNY   90  74  59 S15       29.95F HX  99
AHOSKIE*       PTSUNNY   89  71  55 S6        29.93F HX  96
EDENTON*       PTSUNNY   91  74  57 SW9       29.96F HX  99
CURRITUCK*     PTSUNNY   93  67  42 SW9G23    29.96F HX  97
KILL DEVIL HLS PTSUNNY   89  77  67 S8G18     29.96F HX 102
MANTEO         PTSUNNY   87  78  76 S16       29.97F HX  99
CAPE HATTERAS  MOSUNNY   87  78  74 SW12G23   30.02F HX 100
GOLDSBORO      PTSUNNY   94  70  45 SW15      29.92F HX  99
WASHINGTON     MOSUNNY   93  74  52 S8G17     29.97F HX 103
GREENVILLE     PTSUNNY   91  72  52 SW13      29.97F HX  98
NEW BERN       CLOUDY    92  76  59 S9        29.99F HX 104
WILMINGTON     PTSUNNY   90  71  53 W15G21    30.00R HX  96
$$

VAZ048-092000-
ELSEWHERE

CITY           SKY/WX    TMP DP  RH WIND       PRES   REMARKS
HARRISBURG PA  MOSUNNY   88  62  41 W12       29.85F
BALTIMORE      PTSUNNY   86  67  52 S8        29.88F
ANNAPOLIS      MOSUNNY   83  70  64 SE14      29.90F
ANDREWS AFB    MOSUNNY   87  68  53 S15       29.90F
WILMINGTON DE  PTSUNNY   87  68  52 SW10      29.90F
PHILADELPHIA   PTSUNNY   88  64  44 SW14G25   29.89F
WILDWOOD NJ*   PTSUNNY   82  68  61 W5        29.93F
ATLANTIC CITY  CLOUDY    83  68  60 W6        29.92S
HENDERSON NC   PTSUNNY   87  64  45 W6        29.96F
GREENSBORO     CLOUDY    85  69  58 W8        29.98F
ROCKY MOUNT    PTSUNNY   92  71  50 SW10      29.94F HX  98
FAYETTEVILLE   MOSUNNY   98  56  24 SW20G31   29.93F HX  96
CHARLOTTE      CLOUDY    87  66  49 SW5       29.99F
$$

VAZ100-092000-
MARINE

STATION/POSITION TIME  TEMP    WIND        PRES    WAVE   SWELL
                       AIR SEA DIR/SP/G            HT/PER HT/PER
                 (UTC) (F)     (DEG/KT/KT) (MB)    (FT/S) (FT/S)
44066 TX TWR #4  1900   72 71  190/  8/ 12 1013.5F   6/ 8   5/ 8
CAPE MAY NJ      1900   81 76   CALM  /  2 1013.1F
LEWES DE         1900   79 71   60/  4/  4 1012.5F
15NM E FENWICK I 1900   74 72              1013.7R   4/ 6
OCEAN-CITY-INLET 1900   73 72  200/  5/  8 1013.3R
WACHAPREAGUE VA  1900   85 82  210/  7/ 12 1013.6F
THOMAS POINT MD  1900   79 79  160/ 12/ 13 1012.9F
GOOSES REEF MD   1900   80     170/  4/  6 1013.6S
COVE POINT MD    1900   79     170/  9/ 10 1012.9F
SOLOMONS ISLAND  1900      80                N/A
BISHOPS HEAD MD  1900   81 81  200/  8/ 11 1013.2F
PINEY POINT MD   1900          140/  5/  5   N/A
POTOMAC MD       1900   81     180/  4/  6 1012.7F
CAMBRIDGE MD     1900   85 80  170/  5/ 10 1012.5S
LEWISETTA VA     1900   84 80  230/  8/ 10 1012.9F
RAPPAHANNOCK LGT 1900          200/  7/  8 1014.4S
STINGRAY PT      1900   83     240/  6/  8 1013.0S
YORK RVR RNG VA  1900   84     310/  3/  5 1013.0F
YORKTOWN VA      1900   86 80  270/  5/  7 1013.3S
JAMESTOWN VA     1900   83     290/  4/  6   N/A
DOMINION TERM VA 1900   87     220/ 12/ 17 1013.6F
KIPTOPEKE VA     1900      83  340/  2/  3   N/A
CHES BAY BRIDGE  1900   85 80  210/  3/  7 1013.1F
CAPE HENRY VA    1900   80      90/  8/ 10 1012.7F
CHESAPEAKE LGHT  1800   78     180/ 16/ 17 1014.7F
WILLOUBY STN VA  1900   85     250/  8/  9 1012.9F
S CRANEY ISL VA  1900          190/  8/ 11 1013.5F
CAPE HENRY BUOY  1900      78                N/A     3/ 5
1ST LANDING BUOY 1900   84     100/  6/ 12 1013.6R
CAPE CHARLES BUO 1900      79                N/A     3/ 8   2/ 8
OFFSHORE WE BUOY 1900      74                N/A     3/ 7   2/ 7
64NM E OF VA BCH 1900   78 76  190/ 12/ 14 1014.8F   4/ 7   3/ 7
DUCK PIER NC     1900   88 60  220/ 10/ 13 1014.1F
44056 DUCK FRF   1900                        N/A     2/11
OREGON INLET NC  1900   83 83  190/ 20/ 23 1015.6F
HATTERAS NC      1900   84 81  210/ 13/ 19 1017.1R
DIAMOND SHLS NC  1900          300/ 17/ 19 1016.6F   5/ 6   2/ 9
CAPE LOOKOUT NC  1800   83     190/ 18/ 21 1016.8F
$$


USA.gov is the U.S. government's official web portal to all federal, state and local government web resources and services.